Location: Newark
(49.3000°N, 9.4667°E)
Time: 20:35:29
(UTC+00:00)

Transit 4A - Pass Details

Date: 31 May 2019
Orbit: 862 x 983 km, 66.8° (Epoch: 16 June)

Event Time Altitude Azimuth Distance (km) Brightness Sun altitude
Rises 21:39:36 0° 321° (NW) 3,698 12.6 -15.3°
Reaches altitude 10° 21:42:16 10° 316° (NW) 2,744 11.5 -15.5°
Maximum altitude 21:48:23 48° 245° (WSW) 1,259 8.5 -15.9°
Enters shadow 21:52:17 22° 181° (S) 1,993 9.1 -16.1°
